GFSFLT1_prec_precacc12_069.txt.gz
Total_Precipitation_Accumulation
0.00 0.00 0.00 0.00 0.00 0.01 0.01 0.09 0.24 0.29 0.15 0.18 0.09 0.09 0.04 0.05 0.10 0.07 0.01 0.00 0.00 0.00 0.00 0.00 0.01 0.04 0.00 0.00 0.00 0.00 0.00 0.00
0.00 0.00 0.00 0.00 0.00 0.00 0.00 0.00 0.04 0.06 0.04 0.09 0.07 0.08 0.03 0.03 0.03 0.07 0.03 0.00 0.00 0.00 0.00 0.01 0.02 0.04 0.02 0.00 0.01 0.01 0.01 0.00
0.00 0.00 0.00 0.00 0.00 0.00 0.00 0.00 0.00 0.00 0.01 0.02 0.02 0.06 0.05 0.03 0.03 0.05 0.03 0.00 0.01 0.03 0.02 0.01 0.02 0.05 0.05 0.03 0.04 0.02 0.03 0.01
0.00 0.00 0.00 0.00 0.00 0.00 0.00 0.00 0.00 0.00 0.00 0.02 0.02 0.05 0.10 0.05 0.04 0.06 0.04 0.01 0.02 0.03 0.07 0.08 0.08 0.05 0.05 0.06 0.06 0.04 0.03 0.02
0.00 0.00 0.00 0.00 0.00 0.00 0.00 0.00 0.00 0.00 0.00 0.00 0.01 0.01 0.04 0.04 0.01 0.03 0.04 0.02 0.01 0.00 0.01 0.03 0.05 0.05 0.05 0.05 0.06 0.03 0.03 0.03
0.00 0.00 0.00 0.00 0.00 0.00 0.00 0.00 0.00 0.00 0.00 0.00 0.00 0.00 0.00 0.01 0.01 0.01 0.02 0.02 0.01 0.01 0.01 0.04 0.02 0.01 0.04 0.06 0.05 0.05 0.05 0.05
0.00 0.00 0.00 0.00 0.00 0.00 0.00 0.00 0.00 0.00 0.00 0.00 0.00 0.00 0.00 0.00 0.00 0.00 0.00 0.00 0.00 0.00 0.01 0.01 0.02 0.00 0.04 0.08 0.12 0.10 0.15 0.16
0.00 0.00 0.00 0.00 0.00 0.00 0.00 0.00 0.00 0.00 0.00 0.00 0.00 0.00 0.00 0.00 0.00 0.00 0.00 0.00 0.00 0.00 0.01 0.03 0.04 0.13 0.18 0.23 0.23 0.23 0.28 0.39
0.00 0.00 0.00 0.00 0.00 0.00 0.00 0.00 0.00 0.00 0.00 0.00 0.00 0.00 0.00 0.00 0.00 0.01 0.00 0.00 0.00 0.00 0.07 0.14 0.19 0.21 0.22 0.27 0.39 0.55 0.62 0.54
0.00 0.00 0.00 0.00 0.00 0.00 0.00 0.01 0.00 0.00 0.00 0.00 0.00 0.00 0.00 0.00 0.00 0.03 0.04 0.04 0.02 0.00 0.03 0.13 0.21 0.24 0.43 0.52 0.48 0.33 0.23 0.15
0.00 0.00 0.00 0.00 0.00 0.00 0.00 0.05 0.16 0.14 0.01 0.00 0.00 0.00 0.00 0.04 0.02 0.10 0.18 0.13 0.13 0.09 0.09 0.20 0.29 0.26 0.29 0.32 0.28 0.17 0.10 0.06
0.00 0.00 0.00 0.00 0.00 0.00 0.00 0.00 0.08 0.25 0.29 0.15 0.02 0.02 0.01 0.16 0.28 0.38 0.31 0.31 0.29 0.30 0.31 0.30 0.26 0.39 0.41 0.24 0.15 0.11 0.10 0.09
0.00 0.00 0.00 0.00 0.00 0.00 0.00 0.00 0.01 0.16 0.61 0.52 0.29 0.23 0.23 0.31 0.47 0.53 0.56 0.62 0.61 0.48 0.32 0.21 0.19 0.16 0.25 0.35 0.34 0.30 0.27 0.25
0.00 0.00 0.00 0.00 0.00 0.00 0.00 0.01 0.06 0.38 0.51 0.46 0.46 0.53 0.59 0.47 0.42 0.34 0.21 0.21 0.28 0.24 0.26 0.18 0.15 0.13 0.16 0.20 0.19 0.19 0.18 0.17
0.00 0.00 0.00 0.00 0.00 0.01 0.00 0.01 0.10 0.35 0.25 0.32 0.31 0.28 0.27 0.14 0.17 0.13 0.12 0.08 0.09 0.13 0.10 0.10 0.09 0.09 0.09 0.10 0.13 0.13 0.09 0.06
0.00 0.00 0.00 0.00 0.00 0.00 0.00 0.01 0.04 0.13 0.09 0.14 0.09 0.14 0.17 0.10 0.14 0.14 0.08 0.05 0.09 0.13 0.10 0.07 0.07 0.07 0.10 0.11 0.10 0.06 0.04 0.05
0.00 0.00 0.00 0.00 0.00 0.00 0.00 0.02 0.05 0.05 0.06 0.06 0.06 0.08 0.11 0.10 0.11 0.13 0.11 0.13 0.18 0.19 0.19 0.17 0.13 0.14 0.25 0.17 0.10 0.04 0.03 0.03
0.00 0.00 0.00 0.00 0.00 0.00 0.00 0.00 0.02 0.03 0.04 0.04 0.03 0.04 0.09 0.10 0.11 0.13 0.14 0.15 0.20 0.21 0.19 0.19 0.14 0.12 0.20 0.18 0.13 0.03 0.03 0.03
0.00 0.00 0.00 0.00 0.00 0.00 0.00 0.00 0.01 0.01 0.02 0.03 0.04 0.04 0.09 0.12 0.12 0.10 0.13 0.13 0.13 0.15 0.14 0.13 0.12 0.14 0.16 0.10 0.09 0.02 0.03 0.03

GFSFLT1_prec_precacc12_072.txt.gz
Total_Precipitation_Accumulation
0.00 0.00 0.00 0.00 0.00 0.01 0.02 0.09 0.31 0.48 0.28 0.27 0.16 0.19 0.16 0.17 0.18 0.09 0.01 0.00 0.00 0.00 0.00 0.00 0.00 0.00 0.00 0.00 0.00 0.00 0.00 0.00
0.00 0.00 0.00 0.00 0.00 0.01 0.01 0.01 0.07 0.12 0.12 0.13 0.13 0.12 0.08 0.10 0.09 0.09 0.04 0.00 0.00 0.00 0.00 0.01 0.00 0.01 0.01 0.00 0.01 0.03 0.01 0.00
0.00 0.00 0.00 0.00 0.00 0.00 0.00 0.00 0.01 0.00 0.02 0.03 0.06 0.10 0.08 0.05 0.08 0.08 0.06 0.00 0.01 0.03 0.02 0.01 0.02 0.03 0.04 0.03 0.04 0.03 0.05 0.05
0.00 0.00 0.00 0.00 0.00 0.00 0.00 0.00 0.00 0.00 0.00 0.02 0.04 0.08 0.13 0.07 0.08 0.11 0.12 0.03 0.02 0.03 0.07 0.08 0.08 0.05 0.05 0.06 0.06 0.04 0.04 0.05
0.00 0.00 0.00 0.00 0.00 0.00 0.00 0.00 0.00 0.00 0.00 0.00 0.01 0.01 0.04 0.04 0.01 0.05 0.14 0.08 0.01 0.01 0.01 0.03 0.05 0.05 0.08 0.07 0.06 0.04 0.06 0.11
0.00 0.00 0.00 0.00 0.00 0.00 0.00 0.00 0.00 0.00 0.00 0.00 0.00 0.00 0.00 0.02 0.03 0.04 0.12 0.17 0.03 0.02 0.02 0.03 0.03 0.02 0.07 0.08 0.05 0.04 0.06 0.12
0.00 0.00 0.00 0.00 0.00 0.00 0.00 0.00 0.00 0.00 0.00 0.00 0.00 0.00 0.00 0.00 0.01 0.01 0.03 0.09 0.05 0.02 0.01 0.02 0.04 0.04 0.05 0.07 0.14 0.15 0.18 0.18
0.00 0.00 0.00 0.00 0.00 0.00 0.00 0.00 0.00 0.00 0.00 0.00 0.00 0.00 0.00 0.00 0.00 0.00 0.00 0.00 0.00 0.00 0.00 0.00 0.01 0.04 0.08 0.15 0.22 0.25 0.29 0.30
0.00 0.00 0.00 0.00 0.00 0.00 0.00 0.00 0.00 0.00 0.00 0.00 0.00 0.00 0.00 0.00 0.00 0.00 0.00 0.00 0.00 0.00 0.00 0.00 0.01 0.04 0.09 0.19 0.36 0.52 0.61 0.50
0.00 0.00 0.00 0.00 0.00 0.00 0.00 0.01 0.00 0.00 0.00 0.00 0.00 0.00 0.00 0.00 0.00 0.00 0.03 0.04 0.02 0.00 0.00 0.00 0.02 0.04 0.18 0.40 0.43 0.31 0.22 0.14
0.00 0.00 0.00 0.00 0.00 0.00 0.00 0.05 0.15 0.10 0.01 0.00 0.00 0.00 0.00 0.00 0.00 0.00 0.02 0.09 0.12 0.09 0.05 0.05 0.06 0.09 0.18 0.26 0.25 0.16 0.09 0.05
0.00 0.00 0.00 0.00 0.00 0.00 0.00 0.00 0.07 0.21 0.25 0.09 0.00 0.00 0.00 0.00 0.02 0.02 0.03 0.09 0.20 0.18 0.12 0.17 0.21 0.32 0.35 0.22 0.15 0.10 0.09 0.08
0.00 0.00 0.00 0.00 0.00 0.00 0.00 0.00 0.00 0.09 0.35 0.30 0.15 0.05 0.08 0.09 0.06 0.05 0.09 0.29 0.53 0.43 0.22 0.18 0.16 0.15 0.24 0.34 0.33 0.30 0.28 0.27
0.00 0.00 0.00 0.00 0.00 0.00 0.00 0.00 0.01 0.14 0.20 0.20 0.20 0.29 0.47 0.44 0.25 0.13 0.10 0.14 0.22 0.20 0.22 0.16 0.15 0.13 0.16 0.20 0.19 0.21 0.24 0.29
0.00 0.00 0.00 0.00 0.00 0.00 0.00 0.00 0.00 0.04 0.08 0.09 0.12 0.13 0.13 0.06 0.02 0.06 0.08 0.04 0.06 0.10 0.08 0.08 0.08 0.08 0.09 0.09 0.12 0.16 0.18 0.19
0.00 0.00 0.00 0.00 0.00 0.00 0.00 0.00 0.00 0.01 0.02 0.02 0.02 0.07 0.07 0.05 0.04 0.05 0.04 0.04 0.08 0.12 0.08 0.06 0.07 0.07 0.09 0.10 0.11 0.11 0.13 0.16
0.00 0.00 0.00 0.00 0.00 0.00 0.00 0.00 0.00 0.00 0.00 0.00 0.01 0.03 0.05 0.04 0.06 0.08 0.08 0.10 0.16 0.17 0.17 0.15 0.11 0.12 0.22 0.17 0.10 0.05 0.04 0.05
0.00 0.00 0.00 0.00 0.00 0.00 0.00 0.00 0.00 0.00 0.00 0.00 0.00 0.02 0.06 0.06 0.06 0.09 0.11 0.13 0.19 0.19 0.18 0.18 0.14 0.12 0.20 0.18 0.14 0.04 0.04 0.04
0.00 0.00 0.00 0.00 0.00 0.00 0.00 0.00 0.00 0.00 0.01 0.02 0.03 0.03 0.07 0.09 0.09 0.08 0.11 0.12 0.13 0.15 0.14 0.13 0.13 0.14 0.17 0.11 0.12 0.04 0.05 0.06

GFSFLT1_prec_precacc12_075.txt.gz
Total_Precipitation_Accumulation
0.00 0.00 0.00 0.00 0.00 0.01 0.02 0.09 0.29 0.47 0.37 0.30 0.29 0.31 0.21 0.24 0.20 0.10 0.01 0.00 0.00 0.00 0.00 0.00 0.00 0.00 0.00 0.00 0.00 0.00 0.00 0.00
0.00 0.00 0.00 0.00 0.00 0.01 0.01 0.02 0.07 0.14 0.18 0.21 0.17 0.17 0.10 0.13 0.11 0.10 0.04 0.00 0.00 0.00 0.00 0.01 0.00 0.01 0.01 0.00 0.01 0.03 0.01 0.00
0.00 0.00 0.00 0.00 0.00 0.00 0.01 0.01 0.01 0.01 0.03 0.04 0.07 0.10 0.10 0.06 0.08 0.08 0.06 0.00 0.01 0.03 0.02 0.01 0.02 0.03 0.03 0.03 0.04 0.03 0.05 0.05
0.00 0.00 0.00 0.00 0.00 0.00 0.00 0.01 0.00 0.00 0.01 0.03 0.05 0.12 0.22 0.14 0.12 0.11 0.12 0.03 0.02 0.03 0.07 0.08 0.08 0.05 0.05 0.05 0.06 0.04 0.09 0.05
0.00 0.00 0.00 0.00 0.00 0.00 0.00 0.00 0.01 0.00 0.00 0.01 0.01 0.02 0.08 0.08 0.05 0.07 0.15 0.08 0.01 0.01 0.01 0.03 0.05 0.05 0.08 0.07 0.04 0.02 0.14 0.21
0.00 0.00 0.00 0.00 0.00 0.00 0.00 0.00 0.00 0.00 0.00 0.00 0.00 0.00 0.00 0.02 0.06 0.10 0.16 0.20 0.04 0.02 0.02 0.03 0.03 0.02 0.09 0.13 0.08 0.03 0.09 0.19
0.00 0.00 0.00 0.00 0.00 0.00 0.00 0.00 0.00 0.00 0.00 0.00 0.00 0.00 0.00 0.00 0.02 0.03 0.05 0.14 0.10 0.02 0.01 0.02 0.04 0.05 0.08 0.10 0.11 0.14 0.21 0.23
0.00 0.00 0.00 0.00 0.00 0.00 0.00 0.00 0.00 0.00 0.00 0.00 0.00 0.00 0.00 0.00 0.00 0.00 0.00 0.01 0.03 0.01 0.00 0.00 0.01 0.02 0.03 0.06 0.11 0.18 0.23 0.30
0.00 0.00 0.00 0.00 0.00 0.00 0.00 0.00 0.00 0.00 0.00 0.00 0.00 0.00 0.00 0.00 0.00 0.00 0.00 0.00 0.00 0.00 0.00 0.00 0.00 0.01 0.02 0.04 0.09 0.16 0.46 0.49
0.00 0.00 0.00 0.00 0.00 0.00 0.00 0.00 0.00 0.00 0.00 0.00 0.00 0.00 0.00 0.00 0.00 0.00 0.00 0.00 0.00 0.00 0.00 0.00 0.00 0.00 0.02 0.04 0.11 0.18 0.20 0.15
0.00 0.00 0.00 0.00 0.00 0.00 0.00 0.01 0.08 0.04 0.01 0.00 0.00 0.00 0.00 0.00 0.00 0.00 0.00 0.00 0.00 0.01 0.02 0.02 0.01 0.01 0.01 0.05 0.12 0.13 0.11 0.08
0.00 0.00 0.00 0.00 0.00 0.00 0.00 0.00 0.02 0.08 0.13 0.06 0.00 0.00 0.00 0.00 0.00 0.00 0.00 0.00 0.01 0.03 0.06 0.09 0.09 0.11 0.20 0.16 0.11 0.10 0.10 0.10
0.00 0.00 0.00 0.00 0.00 0.00 0.00 0.00 0.00 0.02 0.12 0.14 0.08 0.01 0.00 0.01 0.01 0.00 0.00 0.00 0.01 0.04 0.09 0.11 0.11 0.10 0.20 0.31 0.31 0.29 0.28 0.26
0.00 0.00 0.00 0.00 0.00 0.00 0.00 0.00 0.00 0.01 0.03 0.08 0.09 0.05 0.05 0.21 0.16 0.07 0.02 0.01 0.03 0.09 0.12 0.09 0.05 0.08 0.12 0.18 0.19 0.21 0.24 0.28
0.00 0.00 0.00 0.00 0.00 0.00 0.00 0.00 0.00 0.00 0.01 0.00 0.03 0.04 0.06 0.04 0.01 0.00 0.00 0.00 0.01 0.06 0.06 0.05 0.04 0.04 0.07 0.09 0.12 0.16 0.18 0.20
0.00 0.00 0.00 0.00 0.00 0.00 0.00 0.00 0.00 0.00 0.00 0.00 0.01 0.04 0.04 0.04 0.03 0.02 0.00 0.00 0.02 0.05 0.04 0.03 0.03 0.03 0.07 0.10 0.11 0.11 0.12 0.16
0.00 0.00 0.00 0.00 0.00 0.00 0.00 0.00 0.00 0.00 0.00 0.00 0.00 0.01 0.03 0.02 0.05 0.07 0.06 0.07 0.10 0.13 0.14 0.11 0.07 0.09 0.19 0.16 0.09 0.05 0.04 0.05
0.00 0.00 0.00 0.00 0.00 0.00 0.00 0.00 0.00 0.00 0.00 0.00 0.00 0.01 0.03 0.03 0.04 0.07 0.08 0.09 0.14 0.16 0.15 0.15 0.11 0.09 0.18 0.18 0.14 0.04 0.04 0.04
0.00 0.00 0.00 0.00 0.00 0.00 0.00 0.00 0.00 0.00 0.00 0.00 0.00 0.00 0.03 0.04 0.06 0.06 0.07 0.09 0.10 0.13 0.12 0.11 0.11 0.13 0.16 0.12 0.12 0.04 0.05 0.06

GFSFLT1_prec_precacc12_078.txt.gz
Total_Precipitation_Accumulation
0.00 0.00 0.00 0.00 0.00 0.01 0.02 0.04 0.22 0.33 0.32 0.21 0.24 0.31 0.21 0.22 0.19 0.12 0.03 0.01 0.00 0.01 0.03 0.04 0.04 0.01 0.00 0.00 0.00 0.00 0.00 0.00
0.00 0.00 0.00 0.00 0.00 0.01 0.01 0.03 0.06 0.11 0.18 0.16 0.15 0.16 0.10 0.12 0.10 0.10 0.04 0.00 0.00 0.00 0.00 0.00 0.01 0.00 0.00 0.00 0.01 0.03 0.01 0.00
0.00 0.00 0.00 0.00 0.00 0.00 0.01 0.01 0.02 0.01 0.03 0.04 0.06 0.07 0.09 0.06 0.08 0.07 0.06 0.00 0.00 0.00 0.00 0.00 0.00 0.01 0.03 0.03 0.04 0.03 0.05 0.05
0.00 0.00 0.00 0.00 0.00 0.00 0.00 0.01 0.01 0.01 0.01 0.03 0.05 0.12 0.22 0.15 0.13 0.11 0.12 0.02 0.00 0.01 0.01 0.02 0.03 0.04 0.05 0.05 0.06 0.04 0.09 0.05
0.00 0.00 0.00 0.00 0.00 0.00 0.00 0.00 0.01 0.01 0.01 0.02 0.01 0.02 0.07 0.07 0.06 0.07 0.15 0.08 0.01 0.01 0.01 0.02 0.04 0.05 0.08 0.07 0.04 0.02 0.17 0.23
0.00 0.00 0.00 0.00 0.00 0.00 0.00 0.00 0.01 0.00 0.01 0.01 0.01 0.01 0.00 0.03 0.07 0.11 0.16 0.20 0.04 0.02 0.02 0.03 0.03 0.02 0.09 0.14 0.08 0.07 0.13 0.19
0.00 0.00 0.00 0.00 0.00 0.00 0.00 0.00 0.00 0.00 0.01 0.01 0.00 0.01 0.00 0.00 0.02 0.03 0.05 0.14 0.10 0.02 0.01 0.02 0.04 0.05 0.08 0.11 0.14 0.15 0.18 0.21
0.00 0.00 0.00 0.00 0.00 0.00 0.00 0.00 0.00 0.00 0.00 0.01 0.00 0.01 0.01 0.00 0.00 0.00 0.00 0.01 0.03 0.01 0.00 0.00 0.01 0.02 0.03 0.06 0.08 0.11 0.11 0.11
0.00 0.00 0.00 0.00 0.00 0.00 0.00 0.00 0.00 0.00 0.00 0.00 0.00 0.00 0.01 0.00 0.00 0.00 0.00 0.00 0.00 0.00 0.00 0.00 0.00 0.01 0.03 0.03 0.03 0.04 0.04 0.06
0.00 0.00 0.00 0.00 0.00 0.00 0.00 0.00 0.00 0.00 0.00 0.00 0.00 0.00 0.00 0.00 0.00 0.00 0.00 0.00 0.00 0.00 0.00 0.00 0.00 0.00 0.02 0.02 0.02 0.02 0.03 0.05
0.00 0.00 0.00 0.00 0.00 0.00 0.00 0.00 0.01 0.01 0.00 0.00 0.00 0.00 0.00 0.00 0.00 0.00 0.00 0.00 0.00 0.00 0.00 0.00 0.00 0.00 0.01 0.02 0.02 0.01 0.03 0.05
0.00 0.00 0.00 0.00 0.00 0.00 0.00 0.00 0.00 0.01 0.04 0.03 0.00 0.00 0.00 0.00 0.00 0.00 0.00 0.00 0.00 0.00 0.00 0.00 0.00 0.00 0.06 0.06 0.04 0.03 0.03 0.06
0.00 0.00 0.00 0.00 0.00 0.00 0.00 0.00 0.00 0.00 0.03 0.06 0.05 0.00 0.00 0.00 0.00 0.00 0.00 0.00 0.00 0.00 0.00 0.01 0.03 0.04 0.07 0.14 0.21 0.22 0.24 0.24
0.00 0.00 0.00 0.00 0.00 0.00 0.00 0.00 0.00 0.00 0.00 0.01 0.04 0.03 0.01 0.00 0.00 0.00 0.00 0.00 0.00 0.00 0.00 0.00 0.01 0.04 0.10 0.13 0.14 0.17 0.22 0.27
0.00 0.00 0.00 0.00 0.00 0.00 0.00 0.00 0.00 0.00 0.00 0.00 0.00 0.00 0.02 0.01 0.01 0.00 0.00 0.00 0.00 0.00 0.00 0.00 0.01 0.02 0.05 0.06 0.09 0.14 0.18 0.19
0.00 0.00 0.00 0.00 0.00 0.00 0.00 0.00 0.00 0.00 0.00 0.00 0.00 0.00 0.00 0.00 0.00 0.01 0.00 0.00 0.00 0.00 0.00 0.00 0.01 0.01 0.02 0.05 0.07 0.09 0.12 0.15
0.00 0.00 0.00 0.00 0.00 0.00 0.00 0.00 0.00 0.00 0.00 0.00 0.00 0.00 0.00 0.00 0.00 0.01 0.00 0.00 0.00 0.00 0.00 0.01 0.02 0.03 0.08 0.08 0.05 0.03 0.03 0.03
0.00 0.00 0.00 0.00 0.00 0.00 0.00 0.00 0.00 0.00 0.00 0.00 0.00 0.00 0.00 0.00 0.00 0.00 0.00 0.00 0.02 0.04 0.03 0.05 0.05 0.04 0.08 0.11 0.09 0.02 0.02 0.02
0.00 0.00 0.00 0.00 0.00 0.00 0.00 0.00 0.00 0.00 0.00 0.00 0.00 0.00 0.00 0.00 0.00 0.00 0.00 0.00 0.01 0.02 0.03 0.05 0.05 0.06 0.08 0.07 0.10 0.04 0.03 0.06

GFSFLT1_prec_precacc12_084.txt.gz
Total_Precipitation_Accumulation
0.00 0.00 0.00 0.00 0.00 0.00 0.01 0.02 0.02 0.03 0.11 0.08 0.14 0.16 0.07 0.11 0.06 0.08 0.05 0.02 0.01 0.02 0.03 0.10 0.10 0.05 0.01 0.00 0.00 0.00 0.00 0.00
0.00 0.00 0.00 0.00 0.00 0.00 0.01 0.02 0.02 0.03 0.08 0.10 0.07 0.10 0.03 0.05 0.02 0.06 0.03 0.00 0.01 0.01 0.00 0.07 0.04 0.03 0.01 0.00 0.00 0.00 0.00 0.00
0.00 0.00 0.00 0.00 0.00 0.00 0.01 0.01 0.02 0.01 0.02 0.02 0.02 0.01 0.02 0.02 0.01 0.03 0.02 0.01 0.01 0.01 0.00 0.00 0.01 0.01 0.01 0.00 0.00 0.00 0.00 0.00
0.00 0.00 0.00 0.00 0.00 0.00 0.00 0.01 0.01 0.01 0.01 0.02 0.01 0.05 0.10 0.10 0.05 0.02 0.01 0.00 0.00 0.00 0.00 0.00 0.01 0.01 0.01 0.00 0.00 0.00 0.06 0.01
0.00 0.00 0.00 0.00 0.00 0.00 0.00 0.00 0.01 0.01 0.02 0.02 0.01 0.02 0.04 0.04 0.04 0.02 0.00 0.01 0.00 0.00 0.00 0.00 0.01 0.02 0.01 0.01 0.00 0.00 0.14 0.14
0.00 0.00 0.00 0.00 0.00 0.00 0.00 0.00 0.01 0.01 0.01 0.02 0.01 0.01 0.01 0.01 0.04 0.07 0.04 0.03 0.00 0.00 0.00 0.00 0.01 0.02 0.02 0.06 0.04 0.06 0.12 0.12
0.00 0.00 0.00 0.00 0.00 0.00 0.00 0.00 0.00 0.01 0.01 0.02 0.01 0.01 0.01 0.00 0.01 0.02 0.02 0.05 0.05 0.00 0.00 0.00 0.00 0.02 0.04 0.05 0.08 0.10 0.17 0.16
0.00 0.00 0.00 0.00 0.00 0.00 0.00 0.00 0.00 0.00 0.00 0.01 0.01 0.01 0.00 0.00 0.00 0.00 0.00 0.01 0.02 0.00 0.00 0.00 0.00 0.00 0.01 0.05 0.06 0.08 0.12 0.08
0.00 0.00 0.00 0.00 0.00 0.00 0.00 0.00 0.00 0.00 0.00 0.00 0.01 0.00 0.00 0.00 0.00 0.00 0.00 0.00 0.00 0.00 0.00 0.00 0.00 0.00 0.00 0.00 0.02 0.03 0.05 0.06
0.00 0.00 0.00 0.00 0.00 0.00 0.00 0.00 0.00 0.00 0.00 0.00 0.00 0.00 0.00 0.00 0.00 0.00 0.00 0.00 0.00 0.00 0.00 0.00 0.00 0.00 0.00 0.01 0.02 0.02 0.03 0.03
0.00 0.00 0.00 0.00 0.00 0.00 0.00 0.00 0.00 0.00 0.00 0.00 0.00 0.00 0.00 0.00 0.00 0.00 0.00 0.00 0.00 0.00 0.00 0.00 0.00 0.00 0.01 0.02 0.02 0.02 0.03 0.04
0.00 0.00 0.00 0.00 0.00 0.00 0.00 0.00 0.00 0.00 0.00 0.00 0.00 0.00 0.00 0.00 0.00 0.00 0.00 0.00 0.00 0.00 0.00 0.00 0.00 0.00 0.00 0.01 0.01 0.01 0.01 0.02
0.00 0.00 0.00 0.00 0.00 0.00 0.00 0.00 0.00 0.00 0.00 0.00 0.00 0.00 0.00 0.00 0.00 0.00 0.00 0.00 0.00 0.00 0.00 0.00 0.00 0.00 0.00 0.00 0.00 0.00 0.00 0.00
0.00 0.00 0.00 0.02 0.02 0.01 0.01 0.00 0.00 0.00 0.00 0.00 0.00 0.00 0.00 0.00 0.00 0.00 0.00 0.00 0.00 0.00 0.00 0.00 0.00 0.00 0.00 0.00 0.00 0.00 0.00 0.00
0.00 0.00 0.00 0.01 0.04 0.10 0.10 0.04 0.01 0.01 0.00 0.00 0.00 0.00 0.00 0.00 0.00 0.00 0.00 0.00 0.00 0.00 0.00 0.00 0.00 0.00 0.00 0.00 0.00 0.00 0.00 0.00
0.00 0.00 0.00 0.00 0.00 0.04 0.11 0.11 0.07 0.05 0.05 0.02 0.02 0.00 0.02 0.01 0.00 0.00 0.00 0.00 0.00 0.00 0.00 0.00 0.00 0.00 0.00 0.00 0.00 0.00 0.00 0.00
0.00 0.00 0.00 0.00 0.00 0.00 0.01 0.05 0.07 0.08 0.06 0.09 0.05 0.03 0.01 0.00 0.00 0.01 0.01 0.00 0.00 0.00 0.00 0.00 0.00 0.00 0.00 0.00 0.00 0.00 0.00 0.00
0.00 0.00 0.00 0.00 0.00 0.00 0.00 0.00 0.02 0.02 0.02 0.11 0.09 0.04 0.03 0.04 0.07 0.04 0.02 0.01 0.03 0.01 0.00 0.00 0.00 0.00 0.00 0.00 0.00 0.00 0.00 0.00
0.00 0.00 0.00 0.00 0.00 0.00 0.00 0.00 0.00 0.00 0.01 0.02 0.04 0.06 0.06 0.07 0.05 0.04 0.03 0.03 0.04 0.02 0.01 0.01 0.01 0.00 0.00 0.01 0.01 0.01 0.00 0.00

GFSFLT1_prec_precacc12_087.txt.gz
Total_Precipitation_Accumulation
0.00 0.00 0.00 0.00 0.00 0.00 0.00 0.00 0.01 0.01 0.01 0.02 0.01 0.03 0.02 0.05 0.08 0.19 0.13 0.17 0.12 0.04 0.05 0.10 0.10 0.05 0.01 0.00 0.00 0.00 0.00 0.00
0.00 0.00 0.00 0.00 0.00 0.00 0.00 0.01 0.01 0.02 0.02 0.02 0.02 0.04 0.01 0.03 0.03 0.15 0.19 0.11 0.08 0.04 0.03 0.08 0.04 0.03 0.01 0.00 0.00 0.00 0.00 0.00
0.00 0.00 0.00 0.00 0.00 0.00 0.00 0.00 0.01 0.01 0.01 0.01 0.00 0.01 0.01 0.01 0.02 0.07 0.20 0.16 0.07 0.06 0.04 0.01 0.01 0.01 0.00 0.00 0.00 0.00 0.00 0.00
0.00 0.00 0.00 0.00 0.00 0.00 0.00 0.00 0.00 0.01 0.01 0.01 0.00 0.01 0.01 0.03 0.03 0.05 0.15 0.08 0.06 0.06 0.09 0.02 0.01 0.01 0.00 0.00 0.00 0.00 0.00 0.00
0.00 0.00 0.00 0.00 0.00 0.00 0.00 0.00 0.00 0.01 0.01 0.01 0.01 0.01 0.01 0.01 0.00 0.01 0.05 0.05 0.04 0.03 0.07 0.04 0.01 0.02 0.01 0.00 0.00 0.00 0.04 0.02
0.00 0.00 0.00 0.00 0.00 0.00 0.00 0.00 0.00 0.00 0.01 0.01 0.01 0.01 0.01 0.01 0.00 0.01 0.01 0.02 0.01 0.02 0.02 0.02 0.01 0.03 0.01 0.00 0.00 0.03 0.05 0.01
0.00 0.00 0.00 0.00 0.00 0.00 0.00 0.00 0.00 0.00 0.00 0.01 0.01 0.01 0.01 0.01 0.00 0.00 0.00 0.00 0.01 0.01 0.01 0.01 0.00 0.01 0.02 0.02 0.04 0.05 0.10 0.07
0.00 0.00 0.00 0.00 0.00 0.00 0.00 0.00 0.00 0.00 0.00 0.01 0.01 0.01 0.00 0.00 0.00 0.00 0.00 0.00 0.00 0.00 0.00 0.00 0.00 0.00 0.01 0.03 0.05 0.06 0.06 0.04
0.00 0.00 0.00 0.00 0.00 0.00 0.00 0.00 0.00 0.00 0.00 0.00 0.00 0.00 0.00 0.00 0.00 0.00 0.00 0.00 0.00 0.00 0.00 0.00 0.00 0.00 0.00 0.01 0.01 0.01 0.03 0.02
0.00 0.00 0.00 0.00 0.00 0.00 0.00 0.00 0.00 0.00 0.00 0.00 0.00 0.00 0.00 0.00 0.00 0.00 0.00 0.00 0.00 0.00 0.00 0.00 0.00 0.00 0.00 0.00 0.01 0.00 0.01 0.02
0.00 0.00 0.00 0.00 0.00 0.00 0.00 0.00 0.00 0.00 0.00 0.00 0.00 0.00 0.00 0.00 0.00 0.00 0.00 0.00 0.00 0.00 0.00 0.00 0.00 0.00 0.00 0.00 0.00 0.01 0.01 0.01
0.00 0.00 0.00 0.00 0.00 0.00 0.00 0.00 0.00 0.00 0.00 0.00 0.00 0.00 0.00 0.00 0.00 0.00 0.00 0.00 0.00 0.00 0.00 0.00 0.00 0.00 0.00 0.00 0.00 0.00 0.00 0.00
0.00 0.00 0.00 0.00 0.00 0.00 0.01 0.01 0.00 0.00 0.00 0.00 0.00 0.00 0.00 0.00 0.00 0.00 0.00 0.00 0.00 0.00 0.00 0.00 0.00 0.00 0.00 0.00 0.00 0.00 0.00 0.00
0.00 0.00 0.00 0.03 0.03 0.03 0.04 0.02 0.00 0.01 0.02 0.01 0.01 0.00 0.00 0.00 0.00 0.00 0.00 0.00 0.00 0.00 0.00 0.00 0.00 0.00 0.00 0.00 0.00 0.00 0.00 0.00
0.02 0.02 0.03 0.06 0.09 0.21 0.23 0.15 0.07 0.06 0.03 0.03 0.03 0.03 0.03 0.02 0.00 0.00 0.00 0.00 0.00 0.00 0.00 0.00 0.00 0.00 0.00 0.00 0.00 0.00 0.00 0.00
0.00 0.01 0.01 0.01 0.01 0.05 0.13 0.13 0.10 0.07 0.12 0.12 0.12 0.05 0.07 0.05 0.03 0.01 0.00 0.00 0.00 0.00 0.00 0.00 0.00 0.00 0.00 0.00 0.00 0.00 0.00 0.00
0.00 0.00 0.00 0.00 0.00 0.00 0.01 0.05 0.07 0.08 0.07 0.12 0.07 0.06 0.05 0.04 0.06 0.10 0.04 0.01 0.01 0.00 0.00 0.00 0.00 0.00 0.00 0.00 0.00 0.00 0.00 0.00
0.01 0.00 0.00 0.00 0.00 0.00 0.00 0.00 0.02 0.02 0.02 0.11 0.09 0.04 0.04 0.05 0.11 0.08 0.05 0.06 0.07 0.03 0.03 0.02 0.02 0.03 0.03 0.02 0.01 0.00 0.00 0.00
0.03 0.00 0.00 0.00 0.00 0.00 0.00 0.00 0.00 0.00 0.01 0.02 0.04 0.06 0.06 0.07 0.06 0.05 0.06 0.08 0.07 0.06 0.04 0.05 0.03 0.01 0.05 0.11 0.12 0.04 0.00 0.00

GFSFLT1_prec_precacc12_090.txt.gz
Total_Precipitation_Accumulation
0.00 0.00 0.00 0.00 0.00 0.00 0.00 0.00 0.01 0.01 0.00 0.00 0.00 0.01 0.02 0.06 0.08 0.21 0.29 0.55 0.33 0.10 0.04 0.09 0.07 0.03 0.01 0.00 0.00 0.00 0.00 0.00
0.00 0.00 0.00 0.00 0.00 0.00 0.00 0.00 0.00 0.01 0.00 0.00 0.01 0.01 0.01 0.03 0.04 0.25 0.30 0.29 0.34 0.12 0.06 0.09 0.03 0.02 0.01 0.00 0.00 0.00 0.00 0.00
0.00 0.00 0.00 0.00 0.00 0.00 0.00 0.00 0.00 0.01 0.01 0.00 0.00 0.00 0.01 0.01 0.03 0.11 0.45 0.25 0.27 0.18 0.10 0.04 0.01 0.01 0.00 0.00 0.00 0.00 0.00 0.00
0.00 0.00 0.00 0.00 0.00 0.00 0.00 0.00 0.00 0.01 0.01 0.01 0.00 0.00 0.01 0.01 0.02 0.06 0.27 0.25 0.18 0.23 0.18 0.10 0.03 0.02 0.00 0.00 0.00 0.00 0.00 0.00
0.00 0.00 0.00 0.00 0.00 0.00 0.00 0.00 0.00 0.00 0.01 0.01 0.00 0.00 0.01 0.01 0.00 0.01 0.08 0.13 0.16 0.17 0.21 0.14 0.05 0.03 0.01 0.00 0.00 0.00 0.00 0.00
0.00 0.00 0.00 0.00 0.00 0.00 0.00 0.00 0.00 0.00 0.00 0.01 0.01 0.00 0.00 0.00 0.00 0.00 0.03 0.10 0.08 0.15 0.11 0.13 0.05 0.04 0.01 0.00 0.00 0.00 0.00 0.00
0.00 0.00 0.00 0.00 0.00 0.00 0.00 0.00 0.00 0.00 0.00 0.01 0.01 0.00 0.00 0.01 0.00 0.00 0.01 0.03 0.06 0.09 0.12 0.07 0.05 0.02 0.03 0.01 0.01 0.02 0.04 0.02
0.00 0.00 0.00 0.00 0.00 0.00 0.00 0.00 0.00 0.00 0.00 0.00 0.00 0.00 0.00 0.00 0.00 0.00 0.00 0.00 0.01 0.01 0.05 0.04 0.03 0.01 0.01 0.03 0.04 0.04 0.04 0.02
0.00 0.00 0.00 0.00 0.00 0.00 0.00 0.00 0.00 0.00 0.00 0.00 0.00 0.00 0.00 0.00 0.00 0.00 0.00 0.00 0.00 0.00 0.00 0.01 0.01 0.01 0.00 0.01 0.02 0.02 0.03 0.02
0.00 0.00 0.00 0.00 0.00 0.00 0.00 0.00 0.00 0.00 0.00 0.00 0.00 0.00 0.00 0.00 0.00 0.00 0.00 0.00 0.00 0.00 0.00 0.00 0.00 0.00 0.00 0.00 0.01 0.01 0.02 0.02
0.00 0.00 0.00 0.00 0.00 0.00 0.00 0.00 0.00 0.00 0.00 0.00 0.00 0.00 0.00 0.00 0.00 0.00 0.00 0.00 0.00 0.00 0.00 0.00 0.00 0.00 0.00 0.00 0.00 0.01 0.02 0.02
0.00 0.00 0.00 0.00 0.00 0.00 0.00 0.00 0.00 0.00 0.00 0.00 0.00 0.00 0.00 0.00 0.00 0.00 0.00 0.00 0.00 0.00 0.00 0.00 0.00 0.00 0.00 0.00 0.00 0.00 0.00 0.00
0.00 0.00 0.00 0.00 0.00 0.00 0.02 0.04 0.02 0.00 0.00 0.00 0.00 0.00 0.00 0.00 0.00 0.00 0.00 0.00 0.00 0.00 0.00 0.00 0.00 0.00 0.00 0.00 0.00 0.00 0.00 0.00
0.00 0.00 0.00 0.03 0.03 0.04 0.07 0.05 0.02 0.01 0.02 0.01 0.01 0.00 0.00 0.00 0.00 0.00 0.00 0.00 0.00 0.00 0.00 0.00 0.00 0.00 0.00 0.00 0.00 0.00 0.00 0.00
0.05 0.04 0.05 0.08 0.13 0.27 0.32 0.25 0.16 0.12 0.13 0.10 0.09 0.07 0.05 0.03 0.00 0.00 0.00 0.00 0.00 0.00 0.00 0.00 0.00 0.00 0.00 0.00 0.00 0.00 0.00 0.00
0.03 0.05 0.07 0.09 0.10 0.16 0.22 0.20 0.14 0.14 0.19 0.17 0.16 0.07 0.09 0.06 0.04 0.02 0.00 0.00 0.00 0.00 0.00 0.00 0.00 0.00 0.00 0.00 0.00 0.00 0.00 0.00
0.01 0.00 0.00 0.01 0.02 0.03 0.04 0.06 0.08 0.09 0.10 0.16 0.09 0.06 0.05 0.04 0.07 0.12 0.06 0.04 0.02 0.01 0.01 0.01 0.00 0.00 0.00 0.00 0.00 0.00 0.00 0.00
0.04 0.02 0.00 0.01 0.02 0.02 0.01 0.01 0.02 0.02 0.02 0.11 0.10 0.05 0.05 0.06 0.12 0.09 0.07 0.08 0.08 0.04 0.04 0.02 0.02 0.03 0.08 0.08 0.06 0.01 0.00 0.00
0.20 0.07 0.03 0.01 0.01 0.00 0.00 0.00 0.00 0.00 0.01 0.02 0.04 0.07 0.06 0.08 0.06 0.06 0.07 0.10 0.09 0.08 0.06 0.06 0.05 0.03 0.12 0.20 0.19 0.08 0.01 0.01

GFSFLT1_prec_precacc12_093.txt.gz
Total_Precipitation_Accumulation
0.00 0.00 0.00 0.00 0.00 0.00 0.00 0.00 0.00 0.00 0.00 0.00 0.01 0.01 0.03 0.06 0.08 0.22 0.44 0.94 0.58 0.29 0.22 0.07 0.11 0.08 0.02 0.00 0.00 0.00 0.00 0.00
0.00 0.00 0.00 0.00 0.00 0.00 0.00 0.00 0.00 0.01 0.00 0.00 0.01 0.02 0.02 0.04 0.06 0.26 0.37 0.65 0.67 0.25 0.12 0.07 0.04 0.02 0.00 0.00 0.00 0.00 0.00 0.00
0.00 0.00 0.00 0.00 0.00 0.00 0.00 0.00 0.00 0.01 0.00 0.00 0.00 0.00 0.01 0.01 0.03 0.13 0.58 0.47 0.45 0.29 0.12 0.05 0.01 0.00 0.00 0.00 0.00 0.00 0.00 0.00
0.00 0.00 0.00 0.00 0.00 0.00 0.00 0.00 0.00 0.01 0.00 0.00 0.00 0.00 0.01 0.01 0.02 0.07 0.32 0.35 0.30 0.36 0.21 0.11 0.02 0.01 0.00 0.00 0.00 0.00 0.00 0.00
0.00 0.00 0.00 0.00 0.00 0.00 0.00 0.00 0.00 0.00 0.01 0.00 0.00 0.00 0.01 0.01 0.00 0.02 0.09 0.18 0.26 0.32 0.29 0.18 0.06 0.03 0.01 0.00 0.00 0.00 0.00 0.00
0.00 0.00 0.00 0.00 0.00 0.00 0.00 0.00 0.00 0.00 0.01 0.00 0.00 0.00 0.00 0.00 0.00 0.00 0.04 0.11 0.22 0.31 0.32 0.24 0.12 0.06 0.02 0.01 0.00 0.00 0.00 0.00
0.00 0.00 0.00 0.00 0.00 0.00 0.00 0.00 0.00 0.00 0.00 0.00 0.00 0.00 0.00 0.01 0.00 0.00 0.01 0.04 0.08 0.18 0.37 0.28 0.16 0.09 0.07 0.03 0.01 0.00 0.00 0.00
0.00 0.00 0.00 0.00 0.00 0.00 0.00 0.00 0.00 0.00 0.00 0.01 0.00 0.00 0.00 0.00 0.00 0.00 0.00 0.01 0.02 0.02 0.09 0.18 0.15 0.08 0.04 0.05 0.02 0.01 0.00 0.00
0.00 0.00 0.00 0.00 0.00 0.00 0.00 0.00 0.00 0.00 0.01 0.01 0.00 0.00 0.00 0.00 0.00 0.00 0.00 0.00 0.01 0.02 0.01 0.05 0.07 0.03 0.01 0.02 0.02 0.01 0.02 0.01
0.00 0.00 0.00 0.00 0.00 0.00 0.00 0.00 0.00 0.00 0.00 0.00 0.00 0.00 0.00 0.00 0.00 0.00 0.00 0.00 0.00 0.02 0.02 0.02 0.04 0.03 0.01 0.01 0.01 0.01 0.02 0.02
0.00 0.00 0.00 0.00 0.00 0.00 0.00 0.00 0.00 0.00 0.00 0.00 0.00 0.00 0.00 0.00 0.00 0.00 0.00 0.00 0.00 0.00 0.02 0.03 0.01 0.01 0.00 0.01 0.00 0.01 0.02 0.02
0.00 0.00 0.00 0.00 0.00 0.00 0.01 0.00 0.01 0.00 0.00 0.00 0.00 0.00 0.01 0.00 0.00 0.00 0.00 0.00 0.00 0.00 0.00 0.00 0.00 0.00 0.00 0.00 0.00 0.00 0.00 0.00
0.01 0.00 0.00 0.00 0.00 0.01 0.03 0.04 0.03 0.01 0.01 0.00 0.00 0.00 0.00 0.00 0.00 0.00 0.00 0.00 0.00 0.00 0.00 0.00 0.00 0.00 0.00 0.00 0.00 0.00 0.00 0.00
0.10 0.02 0.03 0.04 0.05 0.06 0.08 0.06 0.03 0.03 0.03 0.02 0.01 0.01 0.00 0.00 0.00 0.00 0.00 0.00 0.00 0.00 0.00 0.00 0.00 0.00 0.00 0.00 0.00 0.00 0.00 0.00
0.16 0.09 0.08 0.11 0.16 0.28 0.34 0.29 0.22 0.17 0.21 0.20 0.13 0.08 0.06 0.03 0.00 0.00 0.00 0.00 0.00 0.00 0.00 0.00 0.00 0.00 0.00 0.00 0.00 0.00 0.00 0.00
0.26 0.16 0.14 0.15 0.16 0.18 0.21 0.26 0.25 0.21 0.27 0.28 0.22 0.09 0.10 0.06 0.04 0.02 0.00 0.00 0.00 0.00 0.00 0.00 0.00 0.00 0.00 0.00 0.00 0.00 0.00 0.00
0.23 0.09 0.08 0.10 0.09 0.09 0.08 0.08 0.10 0.13 0.15 0.22 0.15 0.10 0.06 0.05 0.08 0.12 0.06 0.04 0.02 0.01 0.01 0.01 0.00 0.00 0.01 0.00 0.00 0.00 0.00 0.00
0.10 0.02 0.01 0.01 0.03 0.03 0.05 0.07 0.13 0.13 0.14 0.16 0.14 0.08 0.07 0.07 0.13 0.11 0.09 0.11 0.11 0.08 0.07 0.06 0.04 0.07 0.13 0.10 0.08 0.02 0.01 0.00
0.51 0.26 0.09 0.01 0.02 0.03 0.02 0.04 0.07 0.18 0.13 0.04 0.06 0.09 0.07 0.08 0.07 0.06 0.08 0.11 0.11 0.11 0.08 0.10 0.09 0.12 0.18 0.22 0.20 0.09 0.02 0.02

GFSFLT1_prec_precacc12_096.txt.gz
Total_Precipitation_Accumulation
0.00 0.00 0.00 0.00 0.00 0.00 0.00 0.00 0.00 0.00 0.00 0.00 0.01 0.01 0.02 0.04 0.07 0.20 0.45 0.97 0.67 0.52 0.50 0.23 0.23 0.18 0.16 0.09 0.03 0.03 0.02 0.00
0.00 0.00 0.00 0.00 0.00 0.00 0.00 0.00 0.00 0.00 0.00 0.00 0.01 0.02 0.03 0.03 0.05 0.23 0.37 0.70 0.81 0.50 0.41 0.28 0.19 0.13 0.10 0.05 0.01 0.01 0.01 0.00
0.00 0.00 0.00 0.00 0.00 0.00 0.00 0.00 0.00 0.00 0.00 0.00 0.00 0.01 0.01 0.02 0.03 0.12 0.59 0.62 0.65 0.51 0.34 0.22 0.15 0.11 0.09 0.04 0.01 0.01 0.00 0.00
0.00 0.00 0.00 0.00 0.00 0.00 0.00 0.00 0.00 0.00 0.00 0.00 0.00 0.00 0.01 0.02 0.03 0.08 0.32 0.40 0.50 0.45 0.39 0.22 0.12 0.10 0.04 0.01 0.00 0.00 0.00 0.00
0.00 0.00 0.00 0.00 0.00 0.00 0.00 0.00 0.00 0.00 0.00 0.00 0.00 0.00 0.01 0.01 0.01 0.03 0.10 0.20 0.34 0.42 0.38 0.29 0.12 0.09 0.03 0.00 0.00 0.00 0.00 0.00
0.00 0.00 0.00 0.00 0.00 0.00 0.00 0.00 0.00 0.00 0.00 0.00 0.00 0.00 0.00 0.00 0.01 0.01 0.04 0.11 0.23 0.39 0.43 0.30 0.15 0.06 0.02 0.00 0.00 0.00 0.00 0.00
0.00 0.00 0.00 0.00 0.00 0.00 0.00 0.00 0.00 0.00 0.00 0.00 0.00 0.00 0.00 0.01 0.01 0.01 0.01 0.05 0.10 0.26 0.48 0.36 0.21 0.12 0.07 0.04 0.02 0.01 0.00 0.00
0.00 0.00 0.00 0.00 0.00 0.00 0.00 0.00 0.00 0.00 0.00 0.00 0.00 0.00 0.00 0.00 0.01 0.00 0.00 0.02 0.03 0.07 0.17 0.29 0.23 0.15 0.10 0.09 0.05 0.04 0.02 0.01
0.00 0.00 0.00 0.00 0.00 0.00 0.00 0.00 0.00 0.00 0.00 0.00 0.00 0.00 0.00 0.00 0.00 0.00 0.01 0.01 0.01 0.02 0.03 0.10 0.14 0.14 0.07 0.06 0.05 0.03 0.02 0.01
0.00 0.00 0.00 0.00 0.00 0.00 0.00 0.00 0.00 0.00 0.00 0.00 0.00 0.00 0.00 0.00 0.00 0.00 0.00 0.01 0.00 0.02 0.02 0.04 0.11 0.17 0.12 0.03 0.02 0.01 0.02 0.01
0.00 0.00 0.00 0.00 0.00 0.00 0.00 0.01 0.00 0.00 0.00 0.00 0.00 0.00 0.00 0.00 0.00 0.00 0.00 0.00 0.00 0.00 0.03 0.05 0.04 0.07 0.12 0.03 0.01 0.01 0.01 0.01
0.00 0.00 0.00 0.00 0.00 0.00 0.01 0.01 0.01 0.01 0.00 0.00 0.00 0.00 0.00 0.00 0.00 0.00 0.00 0.00 0.00 0.00 0.00 0.02 0.04 0.01 0.02 0.01 0.00 0.01 0.00 0.00
0.04 0.02 0.01 0.01 0.00 0.01 0.03 0.05 0.04 0.02 0.01 0.01 0.00 0.00 0.00 0.01 0.00 0.00 0.00 0.00 0.00 0.00 0.00 0.00 0.00 0.00 0.00 0.00 0.00 0.00 0.00 0.00
0.14 0.06 0.06 0.06 0.05 0.06 0.08 0.07 0.04 0.05 0.06 0.05 0.01 0.01 0.00 0.00 0.00 0.00 0.00 0.00 0.00 0.00 0.01 0.00 0.00 0.00 0.00 0.00 0.00 0.00 0.00 0.00
0.25 0.20 0.14 0.14 0.16 0.23 0.28 0.28 0.23 0.23 0.25 0.26 0.16 0.09 0.06 0.03 0.01 0.01 0.00 0.00 0.00 0.00 0.00 0.00 0.00 0.00 0.00 0.00 0.00 0.00 0.00 0.00
0.45 0.28 0.25 0.21 0.20 0.21 0.21 0.24 0.30 0.29 0.32 0.36 0.27 0.10 0.08 0.05 0.05 0.03 0.01 0.01 0.00 0.00 0.00 0.00 0.00 0.00 0.00 0.00 0.00 0.00 0.00 0.00
0.73 0.44 0.23 0.22 0.20 0.15 0.16 0.19 0.20 0.19 0.18 0.21 0.19 0.11 0.07 0.05 0.08 0.11 0.06 0.05 0.03 0.01 0.01 0.02 0.01 0.01 0.02 0.00 0.00 0.00 0.00 0.00
0.72 0.50 0.21 0.11 0.16 0.14 0.18 0.20 0.27 0.25 0.22 0.15 0.12 0.11 0.14 0.10 0.09 0.08 0.08 0.10 0.10 0.09 0.08 0.08 0.09 0.13 0.18 0.11 0.09 0.02 0.01 0.01
1.01 0.89 0.36 0.14 0.12 0.08 0.06 0.10 0.15 0.30 0.26 0.29 0.24 0.17 0.12 0.11 0.06 0.05 0.06 0.09 0.08 0.09 0.08 0.11 0.12 0.17 0.22 0.23 0.22 0.09 0.03 0.04